Zurück zum Katalog

KUIPER-00025

AktivKommunikationLEO
NORAD 63739·PAYLOAD·🇺🇸 United States

Gestartet Apr 28, 2025 von Cape Canaveral Space Force Station

Loading…

Nächste Überflüge (nächste 24 Stunden)

TLE

AktuellSource: CelesTrak SupGP

Epoche: Sep 14, 2026, 23:03 UTC

1 63739C 25088R   26257.96048611  .00002270  00000+0  29722-3 0  2570
2 63739  51.9038 343.6922 0000542  89.6371 193.4911 14.79922457    19

Verfolge KUIPER-00025 in Echtzeit mit AllMySat

Download on the App Store